This is the latest recevied weather packets stored in our database for station/object AE5TC. If no packets are shown the sender has not sent any weather packets the latest 10 day(s).
| Time | Temp. | Humidity | Pressure | Rain* | Wind** | Luminosity | Snow |
|---|---|---|---|---|---|---|---|
| 1778079874 | 26.67° C | 84% | 1015.5 hPa | 0 mm | - | 305 W/m² | - |
| 1778079571 | 26.67° C | 84% | 1015.5 hPa | 0 mm | - | 447 W/m² | - |
| 1778079267 | 26.11° C | 83% | 1015.4 hPa | 0 mm | - | 696 W/m² | - |
| 1778078965 | 26.11° C | 85% | 1015.4 hPa | 0 mm | - | 227 W/m² | - |
| 1778078661 | 25.56° C | 87% | 1015.3 hPa | 0 mm | - | 210 W/m² | - |
| 1778078360 | 26.11° C | 85% | 1015.4 hPa | 0 mm | - | 221 W/m² | - |
| 1778078056 | 26.67° C | 85% | 1015.4 hPa | 0 mm | - | 393 W/m² | - |
| 1778077755 | 26.67° C | 84% | 1015.1 hPa | 0 mm | - | 607 W/m² | - |
| 1778077453 | 25.56° C | 86% | 1015.3 hPa | 0 mm | - | 674 W/m² | - |
| 1778077150 | 25.56° C | 89% | 1015.4 hPa | 0 mm | - | 449 W/m² | - |
| 1778076848 | 25° C | 90% | 1015 hPa | 0 mm | - | 552 W/m² | - |
| 1778076546 | 25° C | 88% | 1015 hPa | 0 mm | - | 137 W/m² | - |
| 1778076243 | 25° C | 91% | 1015.1 hPa | 0 mm | - | 158 W/m² | - |
| 1778075940 | 23.89° C | 92% | 1014.9 hPa | 0 mm | - | 393 W/m² | - |
| 1778075636 | 24.44° C | 91% | 1015 hPa | 0 mm | - | 115 W/m² | - |
| 1778075333 | 24.44° C | 92% | 1014.9 hPa | 0 mm | - | 300 W/m² | - |
| 1778075029 | 25° C | 92% | 1014.8 hPa | 0 mm | - | 348 W/m² | - |
| 1778074726 | 25° C | 91% | 1014.8 hPa | 0 mm | - | 421 W/m² | - |
| 1778074423 | 24.44° C | 93% | 1014.7 hPa | 0 mm | - | 176 W/m² | - |
| 1778074119 | 23.89° C | 95% | 1014.7 hPa | 0 mm | - | 376 W/m² | - |
| 1778073817 | 24.44° C | 95% | 1014.6 hPa | 0 mm | - | 257 W/m² | - |
| 1778073515 | 24.44° C | 95% | 1014.5 hPa | 0 mm | - | 290 W/m² | - |
| 1778073211 | 24.44° C | 95% | 1014.4 hPa | 0 mm | - | 215 W/m² | - |
| 1778072908 | 23.89° C | 96% | 1014.2 hPa | 0 mm | - | 255 W/m² | - |
| 1778072604 | 23.89° C | 97% | 1014.3 hPa | 0 mm | - | 203 W/m² | - |
* Rain latest hour (hover to see other rain measurements)
** Current wind speed in m/s (hover to see current wind gust speed)